Location: Fluertsh�userhof
(48.7537°N, 10.3850°E)
Time: 05:27:45
(UTC+00:00)

MOS 1 Rocket - Pass Details

Date: 18 September 2020
Orbit: 614 x 831 km, 97.4° (Epoch: 22 October)

Event Time Altitude Azimuth Distance (km) Brightness Sun altitude
Rises 18:56:39 0° 9° (N) 3,044 6.8 -15.7°
Reaches altitude 10° 18:58:58 10° 6° (N) 2,094 6.0 -16.1°
Maximum altitude 19:03:25 59° 288° (WNW) 744 3.7 -16.7°
Drops below altitude 10° 19:07:40 10° 209° (SSW) 1,992 5.7 -17.4°
Sets 19:09:49 0° 205° (SSW) 2,881 6.5 -17.7°
